User: anonymous   Login
Location: Waning Moon II Observatory
(30.3730°N, 89.7620°W)
Time: 00:07:54
(UTC-05:00)
Language:

Meteor 1-21 - Orbit

View from above orbital plane
View from above orbital plane
View from above satellite
View from above satellite

Ground track
Ground track

The orbit data is extracted from the following two-line orbital elements,

1 07714U 75023A   16176.48152360  .00000148  00000-0  79709-4 0  9995
2 07714  81.2104 179.9566 0029768 180.3005 179.8153 14.07941522434852
Epoch (UTC): 24 June 2016 11:33:23
Eccentricity: 0.0029768
inclination: 81.2104°
perigee height: 845 km
apogee height: 888 km
right ascension of ascending node: 179.9566°
argument of perigee: 180.3005°
revolutions per day: 14.07941522
mean anomaly at epoch: 179.8153°
orbit number at epoch: 43485

The dashed part of the orbit path shows where the satellite is in the earth's shadow,  

DLR